Tracking 18852 objects as of 23-Nov-2017
HD Live streaming from Space Station
objects crossing your sky now

PICOSAT 5

Track PICOSAT 5 now!
10-day predictions
PICOSAT 5 is classified as:


NORAD ID: 26093
Int'l Code: 2000-004L
Perigee: 707.4 km
Apogee: 750.0 km
Inclination: 100.2 °
Period: 99.2 minutes
Semi major axis: 7099 km
RCS: 0.0365 m2 (small)
Launch date: January 27, 2000
Source: United States (US)
Launch site: AIR FORCE WESTERN TEST RANGE (AFWTR)
aabbcc
Your satellite tracking list
Your tracking list is empty




NASA's NSSDC Master Catalog

Two Line Element Set (TLE):
1 26093U 00004L   17325.88371794  .00000501  00000-0  14142-3 0  9990
2 26093 100.1982 105.5404 0029963 310.9075  48.9519 14.51248504937702
Source of the keplerian elements: AFSPC